Time,TemperatureF,DewpointF,PressureIn,WindDirection,WindDirectionDegrees,WindSpeedMPH,WindSpeedGustMPH,Humidity,HourlyPrecipIn,Conditions,Clouds,dailyrainin,SoftwareType,DateUTC
2013-06-27 00:01:00,67.7,64.7,29.79,NE,56,0.0,0.0,90,1.31,RA,,0.00,WeatherDisplay:10.37,2013-06-27 04:01:00,
2013-06-27 00:02:00,67.7,64.7,29.79,NE,56,0.0,0.0,90,1.30,RA,,0.00,WeatherDisplay:10.37,2013-06-27 04:02:00,
2013-06-27 00:03:00,67.7,64.7,29.78,NE,56,0.0,0.0,90,1.30,RA,,0.00,WeatherDisplay:10.37,2013-06-27 04:03:00,
2013-06-27 00:07:00,67.7,64.7,29.78,NE,56,1.1,1.1,90,1.29,RA,,0.00,WeatherDisplay:10.37,2013-06-27 04:07:00,
2013-06-27 00:12:00,67.6,64.6,29.77,NE,56,1.0,0.0,90,1.19,RA,,0.01,WeatherDisplay:10.37,2013-06-27 04:12:00,
2013-06-27 00:17:00,67.7,64.7,29.77,NE,56,1.1,0.0,90,1.06,RA,,0.02,WeatherDisplay:10.37,2013-06-27 04:17:00,
2013-06-27 00:22:00,67.7,64.7,29.77,NE,56,1.1,0.0,90,0.86,RA,,0.03,WeatherDisplay:10.37,2013-06-27 04:22:00,
2013-06-27 00:27:00,67.7,64.7,29.78,SSE,151,5.8,5.8,90,0.74,RA,,0.03,WeatherDisplay:10.37,2013-06-27 04:27:00,
2013-06-27 00:32:00,67.7,64.7,29.79,SSE,153,4.0,4.0,90,0.45,RA,,0.04,WeatherDisplay:10.37,2013-06-27 04:32:00,
2013-06-27 00:37:00,67.6,64.6,29.81,SSE,158,1.1,1.1,90,0.19,RA,,0.05,WeatherDisplay:10.37,2013-06-27 04:37:00,
2013-06-27 00:42:00,67.6,64.6,29.82,SSE,157,2.0,2.0,90,0.13,RA,,0.05,WeatherDisplay:10.37,2013-06-27 04:42:00,
2013-06-27 00:47:00,67.6,64.6,29.81,SSE,158,1.1,1.1,90,0.09,RA,,0.07,WeatherDisplay:10.37,2013-06-27 04:47:00,
2013-06-27 00:52:00,67.6,64.6,29.80,SSE,158,0.0,0.0,90,0.10,RA,,0.08,WeatherDisplay:10.37,2013-06-27 04:52:00,
2013-06-27 00:57:00,67.7,64.7,29.80,SSE,158,4.0,4.0,90,0.11,RA,,0.10,WeatherDisplay:10.37,2013-06-27 04:57:00,
2013-06-27 01:02:00,67.6,64.6,29.80,SSE,160,2.3,2.3,90,0.12,RA,,0.12,WeatherDisplay:10.37,2013-06-27 05:02:00,
2013-06-27 01:07:00,67.6,64.6,29.80,SSE,160,0.0,0.0,90,0.14,RA,,0.14,WeatherDisplay:10.37,2013-06-27 05:07:00,
2013-06-27 01:12:00,67.4,64.4,29.80,SSE,162,5.0,5.0,90,0.14,RA,,0.16,WeatherDisplay:10.37,2013-06-27 05:12:00,
2013-06-27 01:17:00,67.4,64.4,29.80,SSE,162,0.0,0.0,90,0.15,RA,,0.18,WeatherDisplay:10.37,2013-06-27 05:17:00,
2013-06-27 01:22:00,67.3,64.3,29.81,South,173,6.0,6.0,90,0.16,RA,,0.19,WeatherDisplay:10.37,2013-06-27 05:22:00,
2013-06-27 01:27:00,67.3,64.3,29.83,SSW,193,4.0,4.0,90,0.17,RA,,0.20,WeatherDisplay:10.37,2013-06-27 05:27:00,
2013-06-27 01:32:00,67.3,64.3,29.84,SSW,194,4.0,4.0,90,0.17,RA,,0.21,WeatherDisplay:10.37,2013-06-27 05:32:00,
2013-06-27 01:37:00,67.3,64.3,29.85,SSW,199,4.0,4.0,90,0.18,RA,,0.23,WeatherDisplay:10.37,2013-06-27 05:37:00,
2013-06-27 01:42:00,67.3,64.3,29.85,SSW,201,3.5,3.5,90,0.19,RA,,0.24,WeatherDisplay:10.37,2013-06-27 05:42:00,
2013-06-27 01:47:00,67.2,64.2,29.83,SSW,201,1.0,0.0,90,0.18,RA,,0.24,WeatherDisplay:10.37,2013-06-27 05:47:00,
2013-06-27 01:52:00,67.2,64.2,29.83,SSW,201,0.0,0.0,90,0.16,OVC,,0.24,WeatherDisplay:10.37,2013-06-27 05:52:00,
2013-06-27 01:57:00,67.2,64.2,29.83,SSW,201,3.5,3.5,90,0.14,OVC,,0.24,WeatherDisplay:10.37,2013-06-27 05:57:00,
2013-06-27 02:02:00,67.1,64.1,29.81,SSW,201,1.1,1.1,90,0.12,BKN,,0.24,WeatherDisplay:10.37,2013-06-27 06:02:00,
2013-06-27 02:07:00,67.1,64.1,29.81,SSW,201,1.1,0.0,90,0.10,BKN,,0.24,WeatherDisplay:10.37,2013-06-27 06:07:00,
2013-06-27 02:12:00,67.1,64.1,29.81,SSW,201,2.3,2.3,90,0.09,BKN,,0.24,WeatherDisplay:10.37,2013-06-27 06:12:00,
2013-06-27 02:17:00,67.1,64.1,29.80,SSW,201,0.0,0.0,90,0.06,BKN,,0.24,WeatherDisplay:10.37,2013-06-27 06:17:00,
2013-06-27 02:22:00,67.1,64.1,29.80,SSW,195,3.5,3.5,90,0.05,BKN,,0.24,WeatherDisplay:10.37,2013-06-27 06:22:00,
2013-06-27 02:27:00,67.1,64.1,29.80,SSW,195,2.3,2.3,90,0.04,BKN,,0.24,WeatherDisplay:10.37,2013-06-27 06:27:00,
2013-06-27 02:32:00,67.1,64.1,29.81,SSW,195,2.3,0.0,90,0.03,BKN,,0.24,WeatherDisplay:10.37,2013-06-27 06:32:00,
2013-06-27 02:37:00,67.1,64.1,29.81,SSW,197,2.3,2.3,90,0.01,BKN,,0.24,WeatherDisplay:10.37,2013-06-27 06:37:00,
2013-06-27 02:42:00,67.1,64.1,29.82,SSW,198,4.0,4.0,90,0.00,BKN,,0.24,WeatherDisplay:10.37,2013-06-27 06:42:00,
2013-06-27 02:47:00,67.1,64.1,29.81,SSW,200,6.0,6.0,90,0.00,BKN,,0.24,WeatherDisplay:10.37,2013-06-27 06:47:00,
2013-06-27 02:52:00,67.1,64.1,29.80,SSW,201,3.0,3.0,90,0.00,BKN,,0.24,WeatherDisplay:10.37,2013-06-27 06:52:00,
2013-06-27 02:57:00,67.0,64.0,29.80,SSW,201,3.0,3.0,90,0.00,BKN,,0.24,WeatherDisplay:10.37,2013-06-27 06:57:00,
2013-06-27 03:02:00,67.1,64.1,29.80,SSW,201,2.0,2.0,90,0.00,OVC,,0.24,WeatherDisplay:10.37,2013-06-27 07:02:00,
2013-06-27 03:07:00,67.1,64.1,29.80,SSW,201,2.3,2.3,90,0.00,OVC,,0.24,WeatherDisplay:10.37,2013-06-27 07:07:00,
2013-06-27 03:12:00,67.1,64.1,29.79,SSW,201,1.1,0.0,90,0.00,OVC,,0.24,WeatherDisplay:10.37,2013-06-27 07:12:00,
2013-06-27 03:17:00,67.2,64.2,29.79,SSW,201,0.0,0.0,90,0.01,RA,,0.25,WeatherDisplay:10.37,2013-06-27 07:17:00,
2013-06-27 03:22:00,67.3,64.3,29.80,SSW,201,3.5,3.5,90,0.01,RA,,0.25,WeatherDisplay:10.37,2013-06-27 07:22:00,
2013-06-27 03:27:00,67.4,64.4,29.78,SSW,201,1.1,0.0,90,0.02,RA,,0.26,WeatherDisplay:10.37,2013-06-27 07:27:00,
2013-06-27 03:32:00,67.5,64.5,29.78,SSW,201,1.1,1.1,90,0.02,RA,,0.26,WeatherDisplay:10.37,2013-06-27 07:32:00,
2013-06-27 03:35:00,67.5,64.5,29.79,SSW,201,1.1,1.1,90,0.02,OVC,,0.26,WeatherDisplay:10.37,2013-06-27 07:35:00,
2013-06-27 03:40:00,67.5,64.5,29.79,SSW,201,3.5,3.5,90,0.02,OVC,,0.26,WeatherDisplay:10.37,2013-06-27 07:40:00,
2013-06-27 03:45:00,67.6,64.6,29.79,SSW,208,1.1,1.1,90,0.02,OVC,,0.26,WeatherDisplay:10.37,2013-06-27 07:45:00,
2013-06-27 03:50:00,67.7,64.7,29.78,SSW,198,3.5,3.5,90,0.02,OVC,,0.26,WeatherDisplay:10.37,2013-06-27 07:50:00,
2013-06-27 03:55:00,67.7,64.7,29.78,SSW,199,4.0,4.0,90,0.02,OVC,,0.26,WeatherDisplay:10.37,2013-06-27 07:55:00,
2013-06-27 04:00:00,67.7,64.7,29.78,SSW,198,4.6,4.6,90,0.02,OVC,,0.26,WeatherDisplay:10.37,2013-06-27 08:00:00,
2013-06-27 04:05:00,67.8,64.8,29.78,SSW,198,4.0,4.0,90,0.02,-RA,,0.26,WeatherDisplay:10.37,2013-06-27 08:05:00,
2013-06-27 04:10:00,67.8,64.8,29.78,SSW,199,4.0,4.0,90,0.02,-RA,,0.26,WeatherDisplay:10.37,2013-06-27 08:10:00,
2013-06-27 04:15:00,67.8,64.8,29.78,SSW,198,2.3,2.3,90,0.01,-RA,,0.26,WeatherDisplay:10.37,2013-06-27 08:15:00,
2013-06-27 04:20:00,67.7,64.7,29.78,SSW,199,3.5,3.5,90,0.01,-RA,,0.26,WeatherDisplay:10.37,2013-06-27 08:20:00,
2013-06-27 04:25:00,67.7,64.7,29.78,SSW,200,3.5,3.5,90,0.00,-RA,,0.26,WeatherDisplay:10.37,2013-06-27 08:25:00,
2013-06-27 04:30:00,67.7,64.7,29.78,SSW,203,7.0,7.0,90,0.00,-RA,,0.26,WeatherDisplay:10.37,2013-06-27 08:30:00,
2013-06-27 04:35:00,67.7,64.7,29.77,SSW,206,3.5,3.5,90,0.00,-RA,,0.26,WeatherDisplay:10.37,2013-06-27 08:35:00,
2013-06-27 04:40:00,67.6,64.6,29.78,SSW,209,3.5,3.5,90,0.00,-RA,,0.26,WeatherDisplay:10.37,2013-06-27 08:40:00,
2013-06-27 04:45:00,67.7,64.7,29.78,SSW,210,4.0,4.0,90,0.00,-RA,,0.26,WeatherDisplay:10.37,2013-06-27 08:45:00,
2013-06-27 04:50:00,67.7,64.7,29.77,SSW,210,1.1,1.1,90,0.00,-RA,,0.26,WeatherDisplay:10.37,2013-06-27 08:50:00,
2013-06-27 04:55:00,67.7,64.7,29.77,SSW,210,1.1,0.0,90,0.00,-RA,,0.26,WeatherDisplay:10.37,2013-06-27 08:55:00,
2013-06-27 05:00:00,67.7,64.7,29.78,SSW,210,4.0,4.0,90,0.00,-RA,,0.26,WeatherDisplay:10.37,2013-06-27 09:00:00,
2013-06-27 05:05:00,67.7,64.7,29.78,SSW,210,3.5,3.5,90,0.00,OVC,,0.26,WeatherDisplay:10.37,2013-06-27 09:05:00,
2013-06-27 05:10:00,67.7,64.7,29.78,SSW,210,1.1,1.1,90,0.00,OVC,,0.26,WeatherDisplay:10.37,2013-06-27 09:10:00,
2013-06-27 05:15:00,67.7,64.7,29.77,SSW,210,4.6,4.6,90,0.00,OVC,,0.26,WeatherDisplay:10.37,2013-06-27 09:15:00,
2013-06-27 05:20:00,67.7,64.7,29.77,SSW,211,4.0,4.0,90,0.00,OVC,,0.26,WeatherDisplay:10.37,2013-06-27 09:20:00,
2013-06-27 05:25:00,67.6,64.6,29.77,SSW,211,3.5,3.5,90,0.00,OVC,,0.26,WeatherDisplay:10.37,2013-06-27 09:25:00,
2013-06-27 05:30:00,67.6,64.6,29.78,SSW,210,3.5,3.5,90,0.00,OVC,,0.26,WeatherDisplay:10.37,2013-06-27 09:30:00,
2013-06-27 05:35:00,67.6,64.6,29.78,SSW,209,2.3,0.0,90,0.00,OVC,,0.26,WeatherDisplay:10.37,2013-06-27 09:35:00,
2013-06-27 05:40:00,67.6,64.6,29.78,SSW,209,1.1,1.1,90,0.00,OVC,,0.26,WeatherDisplay:10.37,2013-06-27 09:40:00,
2013-06-27 05:45:00,67.7,64.7,29.78,SSW,209,0.0,0.0,90,0.00,OVC,,0.26,WeatherDisplay:10.37,2013-06-27 09:45:00,
2013-06-27 05:50:00,67.7,64.7,29.78,SSW,212,6.0,6.0,90,0.00,OVC,,0.26,WeatherDisplay:10.37,2013-06-27 09:50:00,
2013-06-27 05:55:00,67.7,64.7,29.78,SSW,212,1.1,1.1,90,0.00,OVC,,0.26,WeatherDisplay:10.37,2013-06-27 09:55:00,
2013-06-27 06:00:00,67.7,64.7,29.78,SSW,212,1.1,1.1,90,0.00,OVC,,0.26,WeatherDisplay:10.37,2013-06-27 10:00:00,
2013-06-27 06:05:00,67.6,64.6,29.78,SSW,212,5.0,5.0,90,0.00,OVC,,0.26,WeatherDisplay:10.37,2013-06-27 10:05:00,
2013-06-27 06:10:00,67.6,64.6,29.78,SSW,212,2.3,2.3,90,0.00,OVC,,0.26,WeatherDisplay:10.37,2013-06-27 10:10:00,
2013-06-27 06:15:00,67.6,64.6,29.79,SSW,212,3.5,3.5,90,0.00,OVC,,0.26,WeatherDisplay:10.37,2013-06-27 10:15:00,
2013-06-27 06:20:00,67.6,64.6,29.79,SSW,212,3.5,3.5,90,0.00,OVC,,0.26,WeatherDisplay:10.37,2013-06-27 10:20:00,
2013-06-27 06:25:00,67.6,64.6,29.79,SSW,212,3.5,3.5,90,0.00,OVC,,0.26,WeatherDisplay:10.37,2013-06-27 10:25:00,
2013-06-27 06:30:00,67.6,64.6,29.79,SSW,212,3.5,3.5,90,0.00,OVC,,0.26,WeatherDisplay:10.37,2013-06-27 10:30:00,
2013-06-27 06:35:00,67.7,64.7,29.79,SSW,212,2.3,2.3,90,0.00,OVC,,0.26,WeatherDisplay:10.37,2013-06-27 10:35:00,
2013-06-27 06:40:00,67.7,64.7,29.80,SSW,212,0.0,0.0,90,0.00,OVC,,0.26,WeatherDisplay:10.37,2013-06-27 10:40:00,
2013-06-27 06:45:00,67.8,64.8,29.79,SSW,212,4.0,4.0,90,0.00,OVC,,0.26,WeatherDisplay:10.37,2013-06-27 10:45:00,
2013-06-27 06:50:00,67.9,64.9,29.79,SSW,212,4.0,4.0,90,0.00,OVC,,0.26,WeatherDisplay:10.37,2013-06-27 10:50:00,
2013-06-27 06:55:00,68.0,65.0,29.80,SSW,212,4.0,4.0,90,0.00,OVC,,0.26,WeatherDisplay:10.37,2013-06-27 10:55:00,
2013-06-27 07:00:00,68.1,65.1,29.80,SSW,212,3.5,3.5,90,0.00,OVC,,0.26,WeatherDisplay:10.37,2013-06-27 11:00:00,
2013-06-27 07:05:00,68.1,65.1,29.80,SSW,212,3.0,3.0,90,0.00,-RA,,0.26,WeatherDisplay:10.37,2013-06-27 11:05:00,
2013-06-27 07:10:00,68.2,65.2,29.80,SSW,210,5.0,5.0,90,0.00,-RA,,0.26,WeatherDisplay:10.37,2013-06-27 11:10:00,
2013-06-27 07:15:00,68.3,65.3,29.80,SSW,213,4.6,4.6,90,0.00,-RA,,0.26,WeatherDisplay:10.37,2013-06-27 11:15:00,
2013-06-27 07:20:00,68.3,65.3,29.80,SSW,213,1.0,0.0,90,0.00,-RA,,0.26,WeatherDisplay:10.37,2013-06-27 11:20:00,
2013-06-27 07:25:00,68.3,65.3,29.80,SSW,213,3.5,3.5,90,0.00,-RA,,0.26,WeatherDisplay:10.37,2013-06-27 11:25:00,
2013-06-27 07:30:00,68.4,65.4,29.80,SSW,213,4.0,4.0,90,0.01,-RA,,0.27,WeatherDisplay:10.37,2013-06-27 11:30:00,
2013-06-27 07:35:00,68.4,65.4,29.80,SSW,213,4.6,4.6,90,0.01,-RA,,0.27,WeatherDisplay:10.37,2013-06-27 11:35:00,
2013-06-27 07:40:00,68.4,65.4,29.80,SSW,213,4.0,4.0,90,0.01,-RA,,0.27,WeatherDisplay:10.37,2013-06-27 11:40:00,
2013-06-27 07:45:00,68.5,65.4,29.80,SW,214,4.6,4.6,90,0.01,-RA,,0.27,WeatherDisplay:10.37,2013-06-27 11:45:00,
2013-06-27 07:50:00,68.6,65.5,29.80,SW,214,1.1,0.0,90,0.01,-RA,,0.27,WeatherDisplay:10.37,2013-06-27 11:50:00,
2013-06-27 07:55:00,68.6,65.5,29.80,SW,214,5.0,5.0,90,0.01,-RA,,0.27,WeatherDisplay:10.37,2013-06-27 11:55:00,
2013-06-27 08:00:00,68.8,65.7,29.80,SW,220,5.0,5.0,90,0.01,-RA,,0.27,WeatherDisplay:10.37,2013-06-27 12:00:00,
2013-06-27 08:05:00,68.9,65.8,29.80,SW,220,2.3,2.3,90,0.01,OVC,,0.27,WeatherDisplay:10.37,2013-06-27 12:05:00,
2013-06-27 08:10:00,69.0,65.9,29.80,SW,225,5.0,5.0,90,0.01,OVC,,0.27,WeatherDisplay:10.37,2013-06-27 12:10:00,
2013-06-27 08:15:00,69.0,65.9,29.80,SW,225,6.0,6.0,90,0.01,OVC,,0.27,WeatherDisplay:10.37,2013-06-27 12:15:00,
2013-06-27 08:20:00,69.1,66.0,29.80,SW,225,3.5,3.5,90,0.01,OVC,,0.27,WeatherDisplay:10.37,2013-06-27 12:20:00,
2013-06-27 08:25:00,69.2,66.1,29.80,SW,226,4.0,4.0,90,0.01,OVC,,0.27,WeatherDisplay:10.37,2013-06-27 12:25:00,
2013-06-27 08:30:00,69.3,66.2,29.80,SW,228,3.0,3.0,90,0.00,OVC,,0.27,WeatherDisplay:10.37,2013-06-27 12:30:00,
2013-06-27 08:35:00,69.4,66.3,29.80,SW,228,0.0,0.0,90,0.00,OVC,,0.27,WeatherDisplay:10.37,2013-06-27 12:35:00,
2013-06-27 08:40:00,69.5,66.4,29.80,SW,230,3.5,3.5,90,0.00,OVC,,0.27,WeatherDisplay:10.37,2013-06-27 12:40:00,
2013-06-27 08:45:00,69.5,66.4,29.80,SW,230,4.6,4.6,90,0.00,OVC,,0.27,WeatherDisplay:10.37,2013-06-27 12:45:00,
2013-06-27 08:50:00,69.6,66.5,29.80,SW,230,6.0,6.0,90,0.00,OVC,,0.27,WeatherDisplay:10.37,2013-06-27 12:50:00,
2013-06-27 08:55:00,69.7,66.6,29.80,SW,230,6.0,6.0,90,0.00,OVC,,0.27,WeatherDisplay:10.37,2013-06-27 12:55:00,
2013-06-27 09:01:00,69.8,66.7,29.80,SW,232,5.0,5.0,90,0.00,OVC,,0.27,WeatherDisplay:10.37,2013-06-27 13:01:00,
2013-06-27 09:06:00,69.9,66.8,29.81,SW,232,3.5,3.5,90,0.00,OVC,,0.27,WeatherDisplay:10.37,2013-06-27 13:06:00,
2013-06-27 09:11:00,70.1,67.0,29.81,SW,232,3.5,3.5,90,0.00,OVC,,0.27,WeatherDisplay:10.37,2013-06-27 13:11:00,
2013-06-27 09:16:00,70.1,67.0,29.81,WSW,240,6.0,6.0,90,0.00,OVC,,0.27,WeatherDisplay:10.37,2013-06-27 13:16:00,
2013-06-27 09:21:00,70.2,67.1,29.81,WSW,241,3.5,3.5,90,0.00,OVC,,0.27,WeatherDisplay:10.37,2013-06-27 13:21:00,
2013-06-27 09:26:00,70.2,67.1,29.81,WSW,242,3.5,3.5,90,0.00,OVC,,0.27,WeatherDisplay:10.37,2013-06-27 13:26:00,
2013-06-27 09:31:00,70.3,67.2,29.81,WSW,241,3.0,3.0,90,0.00,OVC,,0.27,WeatherDisplay:10.37,2013-06-27 13:31:00,
2013-06-27 09:36:00,70.3,67.2,29.81,WSW,242,5.8,5.8,90,0.00,OVC,,0.27,WeatherDisplay:10.37,2013-06-27 13:36:00,
2013-06-27 09:41:00,70.4,67.3,29.81,WSW,243,4.0,4.0,90,0.00,OVC,,0.27,WeatherDisplay:10.37,2013-06-27 13:41:00,
2013-06-27 09:46:00,70.4,67.3,29.81,WSW,243,4.6,4.6,90,0.00,OVC,,0.27,WeatherDisplay:10.37,2013-06-27 13:46:00,
2013-06-27 09:51:00,70.6,67.5,29.81,WSW,243,3.5,3.5,90,0.00,OVC,,0.27,WeatherDisplay:10.37,2013-06-27 13:51:00,
2013-06-27 09:56:00,70.7,67.6,29.81,WSW,243,5.8,5.8,90,0.00,OVC,,0.27,WeatherDisplay:10.37,2013-06-27 13:56:00,
2013-06-27 10:01:00,70.7,67.6,29.81,WSW,243,4.6,4.6,90,0.00,OVC,,0.27,WeatherDisplay:10.37,2013-06-27 14:01:00,
2013-06-27 10:06:00,70.8,67.7,29.81,WSW,243,1.1,1.1,90,0.00,OVC,,0.27,WeatherDisplay:10.37,2013-06-27 14:06:00,
2013-06-27 10:11:00,70.9,67.8,29.81,WSW,243,4.6,4.6,90,0.00,OVC,,0.27,WeatherDisplay:10.37,2013-06-27 14:11:00,
2013-06-27 10:16:00,71.0,67.9,29.81,WSW,243,5.0,5.0,90,0.00,OVC,,0.27,WeatherDisplay:10.37,2013-06-27 14:16:00,
2013-06-27 10:21:00,71.1,68.0,29.81,WSW,247,4.0,4.0,90,0.00,OVC,,0.27,WeatherDisplay:10.37,2013-06-27 14:21:00,
2013-06-27 10:26:00,71.3,68.2,29.81,WSW,247,1.1,0.0,90,0.00,OVC,,0.27,WeatherDisplay:10.37,2013-06-27 14:26:00,
2013-06-27 10:31:00,71.4,68.3,29.81,WSW,248,3.5,3.5,90,0.00,OVC,,0.27,WeatherDisplay:10.37,2013-06-27 14:31:00,
2013-06-27 10:36:00,71.6,68.5,29.81,WSW,248,3.0,3.0,90,0.00,OVC,,0.27,WeatherDisplay:10.37,2013-06-27 14:36:00,
2013-06-27 10:41:00,71.9,68.8,29.81,WSW,245,3.5,3.5,90,0.00,OVC,,0.27,WeatherDisplay:10.37,2013-06-27 14:41:00,
2013-06-27 10:46:00,72.3,69.2,29.81,WSW,241,5.8,5.8,90,0.00,OVC,,0.27,WeatherDisplay:10.37,2013-06-27 14:46:00,
2013-06-27 10:51:00,72.5,69.4,29.81,WSW,243,4.0,4.0,90,0.00,OVC,,0.27,WeatherDisplay:10.37,2013-06-27 14:51:00,
2013-06-27 10:56:00,72.4,69.3,29.81,WSW,245,8.1,8.1,90,0.00,OVC,,0.27,WeatherDisplay:10.37,2013-06-27 14:56:00,
2013-06-27 11:01:00,72.8,69.7,29.81,WSW,247,5.0,5.0,90,0.00,OVC,,0.27,WeatherDisplay:10.37,2013-06-27 15:01:00,
2013-06-27 11:06:00,73.3,70.2,29.81,WSW,251,5.0,5.0,90,0.00,OVC,,0.27,WeatherDisplay:10.37,2013-06-27 15:06:00,
2013-06-27 11:11:00,74.0,70.9,29.81,WSW,251,5.0,5.0,90,0.00,OVC,,0.27,WeatherDisplay:10.37,2013-06-27 15:11:00,
2013-06-27 11:16:00,74.4,70.9,29.81,WSW,251,4.6,4.6,89,0.00,OVC,,0.27,WeatherDisplay:10.37,2013-06-27 15:16:00,
2013-06-27 11:21:00,74.5,70.0,29.81,WSW,252,8.0,8.0,86,0.00,OVC,,0.27,WeatherDisplay:10.37,2013-06-27 15:21:00,
2013-06-27 11:26:00,74.8,70.3,29.81,WSW,254,4.0,4.0,86,0.00,OVC,,0.27,WeatherDisplay:10.37,2013-06-27 15:26:00,
2013-06-27 11:31:00,75.2,70.0,29.81,WSW,242,8.1,8.1,84,0.00,OVC,,0.27,WeatherDisplay:10.37,2013-06-27 15:31:00,
2013-06-27 11:36:00,75.6,70.1,29.81,WSW,252,7.0,7.0,83,0.00,OVC,,0.27,WeatherDisplay:10.37,2013-06-27 15:36:00,
2013-06-27 11:41:00,75.8,70.3,29.81,SW,230,11.0,11.0,83,0.00,OVC,,0.27,WeatherDisplay:10.37,2013-06-27 15:41:00,
2013-06-27 11:46:00,75.9,70.0,29.81,WSW,243,9.2,9.2,82,0.00,OVC,,0.27,WeatherDisplay:10.37,2013-06-27 15:46:00,
2013-06-27 11:51:00,76.3,70.4,29.81,West,259,8.1,8.1,82,0.00,OVC,,0.27,WeatherDisplay:10.37,2013-06-27 15:51:00,
2013-06-27 11:56:00,76.6,70.3,29.81,WSW,251,7.0,7.0,81,0.00,OVC,,0.27,WeatherDisplay:10.37,2013-06-27 15:56:00,
2013-06-27 12:01:00,76.9,70.6,29.81,West,272,5.0,5.0,81,0.00,OVC,,0.27,WeatherDisplay:10.37,2013-06-27 16:01:00,
2013-06-27 12:06:00,77.1,70.8,29.81,WSW,251,5.8,5.8,81,0.00,OVC,,0.27,WeatherDisplay:10.37,2013-06-27 16:06:00,
2013-06-27 12:11:00,77.1,70.8,29.80,West,259,5.0,5.0,81,0.00,OVC,,0.27,WeatherDisplay:10.37,2013-06-27 16:11:00,
2013-06-27 12:16:00,77.5,70.8,29.80,West,275,5.0,5.0,80,0.00,OVC,,0.27,WeatherDisplay:10.37,2013-06-27 16:16:00,
2013-06-27 12:21:00,77.6,70.2,29.80,WSW,239,9.2,9.2,78,0.00,OVC,,0.27,WeatherDisplay:10.37,2013-06-27 16:21:00,
2013-06-27 12:26:00,77.8,71.1,29.80,WSW,251,7.0,7.0,80,0.00,OVC,,0.27,WeatherDisplay:10.37,2013-06-27 16:26:00,
2013-06-27 12:31:00,78.2,71.2,29.80,WSW,245,7.0,7.0,79,0.00,OVC,,0.27,WeatherDisplay:10.37,2013-06-27 16:31:00,
2013-06-27 12:36:00,78.5,71.4,29.80,West,274,3.5,3.5,79,0.00,OVC,,0.27,WeatherDisplay:10.37,2013-06-27 16:36:00,
2013-06-27 12:41:00,78.9,71.5,29.80,WSW,257,6.0,6.0,78,0.00,OVC,,0.27,WeatherDisplay:10.37,2013-06-27 16:41:00,
2013-06-27 12:46:00,78.7,71.3,29.80,West,272,10.0,10.0,78,0.00,OVC,,0.27,WeatherDisplay:10.37,2013-06-27 16:46:00,
2013-06-27 12:51:00,78.7,71.3,29.80,WSW,240,7.0,7.0,78,0.00,OVC,,0.27,WeatherDisplay:10.37,2013-06-27 16:51:00,
2013-06-27 12:56:00,78.7,71.3,29.80,WSW,247,6.0,6.0,78,0.00,OVC,,0.27,WeatherDisplay:10.37,2013-06-27 16:56:00,
2013-06-27 13:01:00,79.0,71.6,29.80,West,272,4.0,4.0,78,0.00,OVC,,0.27,WeatherDisplay:10.37,2013-06-27 17:01:00,
2013-06-27 13:06:00,79.3,71.5,29.80,West,276,7.0,7.0,77,0.00,BKN,,0.27,WeatherDisplay:10.37,2013-06-27 17:06:00,
2013-06-27 13:11:00,79.8,71.9,29.80,West,280,6.0,6.0,77,0.00,BKN,,0.27,WeatherDisplay:10.37,2013-06-27 17:11:00,
2013-06-27 13:16:00,80.1,72.2,29.80,WSW,257,8.1,8.1,77,0.00,BKN,,0.27,WeatherDisplay:10.37,2013-06-27 17:16:00,
2013-06-27 13:21:00,79.9,72.0,29.80,NNW,328,7.0,7.0,77,0.00,BKN,,0.27,WeatherDisplay:10.37,2013-06-27 17:21:00,
2013-06-27 13:26:00,79.4,71.6,29.80,North,357,9.2,9.2,77,0.00,BKN,,0.27,WeatherDisplay:10.37,2013-06-27 17:26:00,
2013-06-27 13:31:00,79.2,72.1,29.80,NNW,327,3.5,3.5,79,0.00,BKN,,0.27,WeatherDisplay:10.37,2013-06-27 17:31:00,
2013-06-27 13:36:00,78.7,72.0,29.80,West,262,9.2,9.2,80,0.00,BKN,,0.27,WeatherDisplay:10.37,2013-06-27 17:36:00,
2013-06-27 13:41:00,78.3,71.6,29.80,WSW,247,5.0,5.0,80,0.00,BKN,,0.27,WeatherDisplay:10.37,2013-06-27 17:41:00,
2013-06-27 13:46:00,78.3,71.6,29.80,West,264,8.1,8.1,80,0.00,BKN,,0.27,WeatherDisplay:10.37,2013-06-27 17:46:00,
2013-06-27 13:51:00,78.5,71.8,29.80,WSW,253,6.9,6.9,80,0.00,BKN,,0.27,WeatherDisplay:10.37,2013-06-27 17:51:00,
2013-06-27 13:56:00,78.7,72.0,29.80,WSW,241,8.1,8.1,80,0.00,BKN,,0.27,WeatherDisplay:10.37,2013-06-27 17:56:00,
2013-06-27 14:01:00,79.3,72.6,29.80,West,272,13.0,13.0,80,0.00,BKN,,0.27,WeatherDisplay:10.37,2013-06-27 18:01:00,
2013-06-27 14:06:00,79.6,72.5,29.80,WSW,244,9.0,9.0,79,0.00,OVC,,0.27,WeatherDisplay:10.37,2013-06-27 18:06:00,
2013-06-27 14:11:00,79.9,72.8,29.80,WSW,243,9.0,9.0,79,0.00,OVC,,0.27,WeatherDisplay:10.37,2013-06-27 18:11:00,
2013-06-27 14:16:00,79.8,72.7,29.80,WSW,251,10.4,10.4,79,0.00,OVC,,0.27,WeatherDisplay:10.37,2013-06-27 18:16:00,
2013-06-27 14:21:00,79.9,73.2,29.80,WSW,253,7.0,7.0,80,0.00,OVC,,0.27,WeatherDisplay:10.37,2013-06-27 18:21:00,
2013-06-27 14:26:00,80.5,73.4,29.79,WSW,247,6.0,6.0,79,0.00,OVC,,0.27,WeatherDisplay:10.37,2013-06-27 18:26:00,
2013-06-27 14:31:00,80.9,73.8,29.79,West,261,5.0,5.0,79,0.00,OVC,,0.27,WeatherDisplay:10.37,2013-06-27 18:31:00,
2013-06-27 14:36:00,81.0,73.1,29.79,North,2,7.0,7.0,77,0.00,OVC,,0.27,WeatherDisplay:10.37,2013-06-27 18:36:00,
2013-06-27 14:41:00,81.2,73.3,29.79,WNW,293,5.8,5.8,77,0.00,OVC,,0.27,WeatherDisplay:10.37,2013-06-27 18:41:00,
2013-06-27 14:46:00,81.6,73.3,29.79,West,281,9.0,9.0,76,0.00,OVC,,0.27,WeatherDisplay:10.37,2013-06-27 18:46:00,
2013-06-27 14:51:00,81.4,73.5,29.79,West,269,5.8,5.8,77,0.00,OVC,,0.27,WeatherDisplay:10.37,2013-06-27 18:51:00,
2013-06-27 14:56:00,81.8,73.9,29.78,North,356,8.1,8.1,77,0.00,OVC,,0.27,WeatherDisplay:10.37,2013-06-27 18:56:00,
2013-06-27 15:01:00,82.2,73.9,29.79,NNE,12,5.0,5.0,76,0.00,BKN,,0.27,WeatherDisplay:10.37,2013-06-27 19:01:00,
2013-06-27 15:06:00,82.0,72.9,29.79,NW,322,11.5,11.5,74,0.00,BKN,,0.27,WeatherDisplay:10.37,2013-06-27 19:06:00,
2013-06-27 15:11:00,81.3,73.0,29.79,NE,48,6.0,6.0,76,0.00,BKN,,0.27,WeatherDisplay:10.37,2013-06-27 19:11:00,
2013-06-27 15:16:00,81.7,74.2,29.79,North,349,3.5,3.5,78,0.00,BKN,,0.27,WeatherDisplay:10.37,2013-06-27 19:16:00,
2013-06-27 15:21:00,82.8,74.5,29.79,NE,43,6.9,6.9,76,0.00,BKN,,0.27,WeatherDisplay:10.37,2013-06-27 19:21:00,
2013-06-27 15:26:00,83.1,74.4,29.78,NE,48,3.5,3.5,75,0.00,BKN,,0.27,WeatherDisplay:10.37,2013-06-27 19:26:00,
2013-06-27 15:31:00,83.4,75.0,29.78,North,7,2.0,2.0,76,0.00,BKN,,0.27,WeatherDisplay:10.37,2013-06-27 19:31:00,
2013-06-27 15:36:00,83.6,74.8,29.78,North,349,12.0,12.0,75,0.00,BKN,,0.27,WeatherDisplay:10.37,2013-06-27 19:36:00,
2013-06-27 15:41:00,84.2,74.6,29.78,WSW,251,7.0,7.0,73,0.00,BKN,,0.27,WeatherDisplay:10.37,2013-06-27 19:41:00,
2013-06-27 15:46:00,84.6,74.6,29.78,NNE,16,9.2,9.2,72,0.00,BKN,,0.27,WeatherDisplay:10.37,2013-06-27 19:46:00,
2013-06-27 15:51:00,85.1,75.5,29.78,NNE,18,4.0,4.0,73,0.00,BKN,,0.27,WeatherDisplay:10.37,2013-06-27 19:51:00,
2013-06-27 15:56:00,85.2,73.9,29.78,NNW,345,5.0,5.0,69,0.00,BKN,,0.27,WeatherDisplay:10.37,2013-06-27 19:56:00,
2013-06-27 16:01:00,85.1,74.2,29.78,NNE,20,9.2,9.2,70,0.00,BKN,,0.27,WeatherDisplay:10.37,2013-06-27 20:01:00,
2013-06-27 16:06:00,85.0,74.1,29.78,ENE,60,4.0,4.0,70,0.00,BKN,,0.27,WeatherDisplay:10.37,2013-06-27 20:06:00,
2013-06-27 16:11:00,84.5,72.8,29.78,North,350,8.1,8.1,68,0.00,BKN,,0.27,WeatherDisplay:10.37,2013-06-27 20:11:00,
2013-06-27 16:16:00,84.3,72.6,29.78,West,280,9.0,9.0,68,0.00,BKN,,0.27,WeatherDisplay:10.37,2013-06-27 20:16:00,
2013-06-27 16:21:00,85.1,72.5,29.78,NE,51,6.0,6.0,66,0.00,BKN,,0.27,WeatherDisplay:10.37,2013-06-27 20:21:00,
2013-06-27 16:26:00,85.1,72.9,29.78,North,7,12.0,12.0,67,0.00,BKN,,0.27,WeatherDisplay:10.37,2013-06-27 20:26:00,
2013-06-27 16:31:00,85.2,72.6,29.78,NW,314,5.8,5.8,66,0.00,BKN,,0.27,WeatherDisplay:10.37,2013-06-27 20:31:00,
2013-06-27 16:36:00,85.7,73.0,29.78,NE,37,10.4,10.4,66,0.00,BKN,,0.27,WeatherDisplay:10.37,2013-06-27 20:36:00,
2013-06-27 16:42:00,85.8,73.1,29.77,NE,55,6.0,6.0,66,0.00,BKN,,0.27,WeatherDisplay:10.37,2013-06-27 20:42:00,
2013-06-27 16:47:00,85.8,72.7,29.76,NNE,24,6.9,6.9,65,0.00,BKN,,0.27,WeatherDisplay:10.37,2013-06-27 20:47:00,
2013-06-27 16:52:00,85.9,72.8,29.77,North,350,5.0,5.0,65,0.00,BKN,,0.27,WeatherDisplay:10.37,2013-06-27 20:52:00,
2013-06-27 16:57:00,85.9,72.8,29.77,NNW,333,6.9,6.9,65,0.00,BKN,,0.27,WeatherDisplay:10.37,2013-06-27 20:57:00,
2013-06-27 17:02:00,86.1,72.5,29.77,NNW,329,6.0,6.0,64,0.00,FEW,,0.27,WeatherDisplay:10.37,2013-06-27 21:02:00,
2013-06-27 17:07:00,86.7,72.6,29.77,NW,305,6.0,6.0,63,0.00,FEW,,0.27,WeatherDisplay:10.37,2013-06-27 21:07:00,
2013-06-27 17:13:00,86.7,72.1,29.77,NNW,337,9.2,9.2,62,0.00,FEW,,0.27,WeatherDisplay:10.37,2013-06-27 21:13:00,
2013-06-27 17:18:00,86.4,71.8,29.77,NW,309,6.9,6.9,62,0.00,FEW,,0.27,WeatherDisplay:10.37,2013-06-27 21:18:00,
2013-06-27 17:23:00,86.3,71.7,29.77,North,7,6.0,6.0,62,0.00,FEW,,0.27,WeatherDisplay:10.37,2013-06-27 21:23:00,
2013-06-27 17:28:00,85.8,71.7,29.77,NW,326,4.0,4.0,63,0.00,FEW,,0.27,WeatherDisplay:10.37,2013-06-27 21:28:00,
2013-06-27 17:33:00,86.2,72.1,29.77,NE,40,6.0,6.0,63,0.00,FEW,,0.27,WeatherDisplay:10.37,2013-06-27 21:33:00,
2013-06-27 17:38:00,86.5,71.5,29.77,NW,326,7.0,7.0,61,0.00,FEW,,0.27,WeatherDisplay:10.37,2013-06-27 21:38:00,
2013-06-27 17:43:00,86.5,71.5,29.76,North,2,6.9,6.9,61,0.00,FEW,,0.27,WeatherDisplay:10.37,2013-06-27 21:43:00,
2013-06-27 17:48:00,86.1,71.1,29.76,NNE,25,7.0,7.0,61,0.00,FEW,,0.27,WeatherDisplay:10.37,2013-06-27 21:48:00,
2013-06-27 17:53:00,85.9,71.4,29.76,NW,308,5.0,5.0,62,0.00,FEW,,0.27,WeatherDisplay:10.37,2013-06-27 21:53:00,
2013-06-27 17:58:00,86.4,71.8,29.76,NNE,17,6.0,6.0,62,0.00,FEW,,0.27,WeatherDisplay:10.37,2013-06-27 21:58:00,
2013-06-27 18:03:00,86.5,71.5,29.76,NNE,28,7.0,7.0,61,0.00,CLR,,0.27,WeatherDisplay:10.37,2013-06-27 22:03:00,
2013-06-27 18:08:00,86.6,71.5,29.76,NNE,20,7.0,7.0,61,0.00,CLR,,0.27,WeatherDisplay:10.37,2013-06-27 22:08:00,
2013-06-27 18:13:00,86.6,71.5,29.76,NNW,340,1.1,1.1,61,0.00,CLR,,0.27,WeatherDisplay:10.37,2013-06-27 22:13:00,
2013-06-27 18:18:00,86.6,71.5,29.76,NNE,21,5.8,5.8,61,0.00,CLR,,0.27,WeatherDisplay:10.37,2013-06-27 22:18:00,
2013-06-27 18:23:00,86.7,72.1,29.76,NNE,27,6.0,6.0,62,0.00,CLR,,0.27,WeatherDisplay:10.37,2013-06-27 22:23:00,
2013-06-27 18:28:00,86.6,71.5,29.76,West,280,5.0,5.0,61,0.00,CLR,,0.27,WeatherDisplay:10.37,2013-06-27 22:28:00,
2013-06-27 18:33:00,86.7,72.1,29.76,NW,318,5.8,5.8,62,0.00,CLR,,0.27,WeatherDisplay:10.37,2013-06-27 22:33:00,
2013-06-27 18:38:00,86.8,72.7,29.76,NW,321,1.0,0.0,63,0.00,CLR,,0.27,WeatherDisplay:10.37,2013-06-27 22:38:00,
2013-06-27 18:43:00,87.1,72.0,29.76,NNW,333,4.6,4.6,61,0.00,CLR,,0.27,WeatherDisplay:10.37,2013-06-27 22:43:00,
2013-06-27 18:48:00,86.5,71.5,29.76,NNW,330,4.0,4.0,61,0.00,CLR,,0.27,WeatherDisplay:10.37,2013-06-27 22:48:00,
2013-06-27 18:54:00,86.2,72.1,29.76,NNW,330,4.0,4.0,63,0.00,CLR,,0.27,WeatherDisplay:10.37,2013-06-27 22:54:00,
2013-06-27 18:59:00,86.4,72.8,29.76,NNW,336,4.0,4.0,64,0.00,CLR,,0.27,WeatherDisplay:10.37,2013-06-27 22:59:00,
2013-06-27 19:04:00,86.8,72.2,29.76,NNW,340,5.0,5.0,62,0.00,FEW,,0.27,WeatherDisplay:10.37,2013-06-27 23:04:00,
2013-06-27 19:10:00,86.6,72.5,29.76,North,2,3.5,3.5,63,0.00,FEW,,0.27,WeatherDisplay:10.37,2013-06-27 23:10:00,
2013-06-27 19:15:00,86.1,72.0,29.76,WNW,283,8.1,8.1,63,0.00,FEW,,0.27,WeatherDisplay:10.37,2013-06-27 23:15:00,
2013-06-27 19:20:00,85.7,72.1,29.76,NNE,18,6.0,6.0,64,0.00,FEW,,0.27,WeatherDisplay:10.37,2013-06-27 23:20:00,
2013-06-27 19:25:00,85.6,72.0,29.76,NW,313,5.8,5.8,64,0.00,FEW,,0.27,WeatherDisplay:10.37,2013-06-27 23:25:00,
2013-06-27 19:30:00,85.3,71.7,29.75,NW,307,3.5,3.5,64,0.00,FEW,,0.27,WeatherDisplay:10.37,2013-06-27 23:30:00,
2013-06-27 19:35:00,85.2,72.1,29.75,NW,311,0.0,0.0,65,0.00,FEW,,0.27,WeatherDisplay:10.37,2013-06-27 23:35:00,
2013-06-27 19:41:00,85.6,72.5,29.76,NW,313,4.0,4.0,65,0.00,FEW,,0.27,WeatherDisplay:10.37,2013-06-27 23:41:00,
2013-06-27 19:46:00,85.4,72.7,29.75,NW,305,4.6,4.6,66,0.00,FEW,,0.27,WeatherDisplay:10.37,2013-06-27 23:46:00,
2013-06-27 19:52:00,85.1,72.5,29.76,WNW,301,2.3,2.3,66,0.00,FEW,,0.27,WeatherDisplay:10.37,2013-06-27 23:52:00,
2013-06-27 19:57:00,85.0,72.8,29.76,WNW,301,3.5,3.5,67,0.00,FEW,,0.27,WeatherDisplay:10.37,2013-06-27 23:57:00,
2013-06-27 20:02:00,84.8,72.6,29.76,West,279,7.0,7.0,67,0.00,FEW,,0.27,WeatherDisplay:10.37,2013-06-28 00:02:00,
2013-06-27 20:07:00,84.0,74.0,29.76,WSW,239,9.0,9.0,72,0.00,FEW,,0.27,WeatherDisplay:10.37,2013-06-28 00:07:00,
2013-06-27 20:12:00,83.0,73.4,29.76,WSW,246,1.1,1.1,73,0.00,FEW,,0.27,WeatherDisplay:10.37,2013-06-28 00:12:00,
2013-06-27 20:17:00,82.1,73.0,29.76,WSW,239,6.0,6.0,74,0.00,FEW,,0.27,WeatherDisplay:10.37,2013-06-28 00:17:00,
2013-06-27 20:22:00,81.1,72.4,29.77,WSW,252,6.9,6.9,75,0.00,FEW,,0.27,WeatherDisplay:10.37,2013-06-28 00:22:00,
2013-06-27 20:28:00,80.5,72.6,29.77,WSW,246,5.0,5.0,77,0.00,FEW,,0.27,WeatherDisplay:10.37,2013-06-28 00:28:00,
2013-06-27 20:33:00,80.0,72.5,29.77,WSW,246,6.0,6.0,78,0.00,FEW,,0.27,WeatherDisplay:10.37,2013-06-28 00:33:00,
2013-06-27 20:38:00,79.8,72.7,29.76,WSW,247,3.5,3.5,79,0.00,FEW,,0.27,WeatherDisplay:10.37,2013-06-28 00:38:00,
2013-06-27 20:43:00,79.4,72.3,29.76,WSW,247,2.3,2.3,79,0.00,FEW,,0.27,WeatherDisplay:10.37,2013-06-28 00:43:00,
2013-06-27 20:48:00,78.9,72.2,29.76,WSW,248,3.5,3.5,80,0.00,FEW,,0.27,WeatherDisplay:10.37,2013-06-28 00:48:00,
2013-06-27 20:53:00,78.7,72.0,29.76,WSW,248,3.0,3.0,80,0.00,FEW,,0.27,WeatherDisplay:10.37,2013-06-28 00:53:00,
2013-06-27 20:58:00,78.7,72.4,29.76,WSW,248,2.0,2.0,81,0.00,FEW,,0.27,WeatherDisplay:10.37,2013-06-28 00:58:00,
2013-06-27 21:03:00,78.4,72.1,29.76,WSW,248,3.0,3.0,81,0.00,CLR,,0.27,WeatherDisplay:10.37,2013-06-28 01:03:00,
2013-06-27 21:08:00,78.1,72.2,29.77,WSW,248,4.0,4.0,82,0.00,CLR,,0.27,WeatherDisplay:10.37,2013-06-28 01:08:00,
2013-06-27 21:13:00,77.9,72.0,29.77,WSW,248,2.3,2.3,82,0.00,CLR,,0.27,WeatherDisplay:10.37,2013-06-28 01:13:00,
2013-06-27 21:18:00,77.7,71.8,29.77,WSW,248,0.0,0.0,82,0.00,CLR,,0.27,WeatherDisplay:10.37,2013-06-28 01:18:00,
2013-06-27 21:23:00,77.5,71.6,29.77,WSW,248,3.5,3.5,82,0.00,CLR,,0.27,WeatherDisplay:10.37,2013-06-28 01:23:00,
2013-06-27 21:28:00,77.2,71.6,29.77,WSW,248,1.0,1.0,83,0.00,CLR,,0.27,WeatherDisplay:10.37,2013-06-28 01:28:00,
2013-06-27 21:33:00,77.1,71.5,29.77,WSW,248,1.1,1.1,83,0.00,CLR,,0.27,WeatherDisplay:10.37,2013-06-28 01:33:00,
2013-06-27 21:39:00,76.9,71.3,29.77,WSW,248,0.0,0.0,83,0.00,CLR,,0.27,WeatherDisplay:10.37,2013-06-28 01:39:00,
2013-06-27 21:44:00,76.7,71.1,29.77,WSW,248,3.0,3.0,83,0.00,CLR,,0.27,WeatherDisplay:10.37,2013-06-28 01:44:00,
2013-06-27 21:49:00,76.5,70.9,29.76,WSW,248,0.0,0.0,83,0.00,CLR,,0.27,WeatherDisplay:10.37,2013-06-28 01:49:00,
2013-06-27 21:54:00,76.4,70.9,29.76,WSW,248,3.5,3.5,83,0.00,CLR,,0.27,WeatherDisplay:10.37,2013-06-28 01:54:00,
2013-06-27 21:59:00,76.2,70.7,29.76,WSW,248,1.1,1.1,83,0.00,CLR,,0.27,WeatherDisplay:10.37,2013-06-28 01:59:00,
2013-06-27 22:04:00,76.2,70.7,29.76,WSW,248,0.0,0.0,83,0.00,CLR,,0.27,WeatherDisplay:10.37,2013-06-28 02:04:00,
2013-06-27 22:09:00,76.1,70.6,29.77,WSW,248,2.3,2.3,83,0.00,CLR,,0.27,WeatherDisplay:10.37,2013-06-28 02:09:00,
2013-06-27 22:14:00,76.1,70.6,29.76,WSW,248,2.0,2.0,83,0.00,CLR,,0.27,WeatherDisplay:10.37,2013-06-28 02:14:00,
2013-06-27 22:19:00,76.0,70.5,29.76,WSW,248,1.0,0.0,83,0.00,CLR,,0.27,WeatherDisplay:10.37,2013-06-28 02:19:00,
2013-06-27 22:25:00,75.9,70.4,29.76,WSW,248,2.3,2.3,83,0.00,CLR,,0.27,WeatherDisplay:10.37,2013-06-28 02:25:00,
2013-06-27 22:30:00,75.8,70.3,29.76,WSW,248,1.1,1.1,83,0.00,CLR,,0.27,WeatherDisplay:10.37,2013-06-28 02:30:00,
2013-06-27 22:35:00,75.7,70.2,29.76,WSW,248,4.0,4.0,83,0.00,CLR,,0.27,WeatherDisplay:10.37,2013-06-28 02:35:00,
2013-06-27 22:40:00,75.6,70.4,29.76,WSW,248,1.0,0.0,84,0.00,CLR,,0.27,WeatherDisplay:10.37,2013-06-28 02:40:00,
2013-06-27 22:45:00,75.6,70.4,29.76,WSW,248,1.1,1.1,84,0.00,CLR,,0.27,WeatherDisplay:10.37,2013-06-28 02:45:00,
2013-06-27 22:50:00,75.6,70.1,29.76,WSW,248,1.1,1.1,83,0.00,CLR,,0.27,WeatherDisplay:10.37,2013-06-28 02:50:00,
2013-06-27 22:55:00,75.5,70.0,29.76,WSW,248,3.5,3.5,83,0.00,CLR,,0.27,WeatherDisplay:10.37,2013-06-28 02:55:00,
2013-06-27 23:00:00,75.4,69.9,29.76,WSW,248,1.0,0.0,83,0.00,CLR,,0.27,WeatherDisplay:10.37,2013-06-28 03:00:00,
2013-06-27 23:05:00,75.4,70.2,29.76,WSW,248,0.0,0.0,84,0.00,CLR,,0.27,WeatherDisplay:10.37,2013-06-28 03:05:00,
2013-06-27 23:10:00,75.3,70.1,29.75,WSW,248,0.0,0.0,84,0.00,CLR,,0.27,WeatherDisplay:10.37,2013-06-28 03:10:00,
2013-06-27 23:15:00,75.3,70.1,29.76,WSW,248,1.0,0.0,84,0.00,CLR,,0.27,WeatherDisplay:10.37,2013-06-28 03:15:00,
2013-06-27 23:21:00,75.1,69.9,29.76,WSW,248,4.0,4.0,84,0.00,CLR,,0.27,WeatherDisplay:10.37,2013-06-28 03:21:00,
2013-06-27 23:26:00,75.1,69.9,29.75,WSW,248,2.3,2.3,84,0.00,CLR,,0.27,WeatherDisplay:10.37,2013-06-28 03:26:00,
2013-06-27 23:31:00,75.1,69.9,29.75,WSW,248,1.1,0.0,84,0.00,CLR,,0.27,WeatherDisplay:10.37,2013-06-28 03:31:00,
2013-06-27 23:36:00,75.1,69.9,29.75,WSW,248,4.0,4.0,84,0.00,CLR,,0.27,WeatherDisplay:10.37,2013-06-28 03:36:00,
2013-06-27 23:41:00,75.2,70.0,29.76,WSW,248,4.0,4.0,84,0.00,CLR,,0.27,WeatherDisplay:10.37,2013-06-28 03:41:00,
2013-06-27 23:46:00,75.1,69.9,29.75,WSW,248,3.5,3.5,84,0.00,CLR,,0.27,WeatherDisplay:10.37,2013-06-28 03:46:00,
2013-06-27 23:51:00,75.0,69.8,29.75,WSW,248,2.3,2.3,84,0.00,CLR,,0.27,WeatherDisplay:10.37,2013-06-28 03:51:00,
2013-06-27 23:56:00,74.8,69.6,29.76,WSW,248,3.5,3.5,84,0.00,CLR,,0.27,WeatherDisplay:10.37,2013-06-28 03:56:00,